Regional Weather Roundup
Issued by NWS

Home | Current Version | Previous Version | Text Only | Print | Product List | Glossary On
Versions: 1 2 3 4 5 6 7 8 9 10 11 12 13 14 15 16 17 18 19 20 21 22 23 24 25 26 27 28 29 30 31 32 33 34 35 36 37 38 39 40 41 42 43 44 45 46 47 48 49 50
000
ASUS46 KSEW 301810
RWRWA

WASHINGTON REGIONAL WEATHER ROUNDUP
NATIONAL WEATHER SERVICE SEATTLE WA
1100 AM PDT SAT AUG 30 2014

NOTE:"FAIR" INDICATES FEW OR NO CLOUDS BELOW 12,000 FEET WITH NO
SIGNIFICANT WEATHER AND/OR OBSTRUCTIONS TO VISIBILITY.

WAZ505-507>509-301900-
SEATTLE, TACOMA, EVERETT, AND VICINITY

CITY           SKY/WX    TMP DP  RH WIND       PRES   REMARKS
EVERETT        CLOUDY    61  56  83 S7        29.92S
6HR MIN TEMP:  57; 6HR MAX TEMP:  61; 6HR PCP: TRACE;

BOEING FIELD   CLOUDY    64  58  80 SE5       29.91S
6HR MIN TEMP:  63; 6HR MAX TEMP:  64; 6HR PCP: TRACE;

RENTON         CLOUDY    62  60  93 E3        29.91S
6HR MIN TEMP:  60; 6HR MAX TEMP:  62; 6HR PCP:  0.07;

SEATAC AIRPORT CLOUDY    61  57  87 E7        29.92F
6HR MIN TEMP:  59; 6HR MAX TEMP:  62; 6HR PCP:  0.11;

JBLM-MCCHORD   LGT RAIN  60  60  99 VRB3      29.91S
6HR MIN TEMP:  58; 6HR MAX TEMP:  62; 6HR PCP:  0.46;

PUYALLUP       NOT AVBL
JBLM-FT LEWIS  DRIZZLE   61  59  94 NE3       29.90F
6HR MIN TEMP:  59; 6HR MAX TEMP:  61; 6HR PCP:  0.52;

TACOMA NARROWS CLOUDY    60  58  92 NE5       29.91S
6HR MIN TEMP:  58; 6HR MAX TEMP:  61; 6HR PCP:  0.19;

$$

WAZ001-503-506-510-514-515-301900-
NORTH INTERIOR

CITY           SKY/WX    TMP DP  RH WIND       PRES   REMARKS
BELLINGHAM     CLOUDY    62  55  77 S8        29.90S
6HR MIN TEMP:  59; 6HR MAX TEMP:  62;

FRIDAY HARBOR  CLOUDY    62  56  80 SE3       29.91S
6HR MIN TEMP:  53; 6HR MAX TEMP:  63;

EASTSOUND      PTSUNNY   63  57  82 S5        29.89S
PORT ANGELES   CLOUDY    62  56  80 N5        29.91S
6HR MIN TEMP:  56; 6HR MAX TEMP:  62;

NAS WHIDBEY    CLOUDY    65  57  75 S9        29.91S
6HR MIN TEMP:  59; 6HR MAX TEMP:  65; 6HR PCP:  0.01;

BURLINGTON     CLOUDY    63  61  94 S6        29.92S
$$

WAZ020-022-039-040-504-511-512-301900-
SOUTHWEST INTERIOR

CITY           SKY/WX    TMP DP  RH WIND       PRES   REMARKS
SHELTON        HVY RAIN  60  58  92 NE5       29.88S FOG
6HR MIN TEMP:  59; 6HR MAX TEMP:  60; 6HR PCP:  0.32;

OLYMPIA        LGT RAIN  60  58  92 E6        29.90F FOG
6HR MIN TEMP:  58; 6HR MAX TEMP:  60; 6HR PCP:  0.39;

CHEHALIS       CLOUDY    66  61  82 S10G16    29.90S
KELSO          CLOUDY    64  57  77 SE10G17   29.95S
6HR MIN TEMP:  61; 6HR MAX TEMP:  64; 6HR PCP:  0.16;

VANCOUVER      CLOUDY    65  57  75 VRB5      29.93F
6HR MIN TEMP:  63; 6HR MAX TEMP:  65; 6HR PCP:  0.01;

SCAPPOOSE, OR  CLOUDY    64  60  87 SE8       29.92S
6HR MIN TEMP:  61; 6HR MAX TEMP:  64; 6HR PCP:  0.01;

PORTLAND, OR   CLOUDY    65  59  81 S12       29.94S
6HR MIN TEMP:  63; 6HR MAX TEMP:  65; 6HR PCP: TRACE;

$$

WAZ021-516-517-301900-
WASHINGTON COAST

CITY           SKY/WX    TMP DP  RH WIND       PRES   REMARKS
FORKS          CLOUDY    62  59  90 SW6       29.90S
6HR MIN TEMP:  58; 6HR MAX TEMP:  64; 6HR PCP: TRACE;

HOQUIAM        LGT RAIN  61  60  97 N8        29.89R FOG
6HR MIN TEMP:  59; 6HR MAX TEMP:  61; 6HR PCP:  1.04;

ASTORIA, OR    CLOUDY    62  59  90 SW9G18    29.89R
6HR MIN TEMP:  60; 6HR MAX TEMP:  64; 6HR PCP:  0.13;

$$

WAZ019-023-024-040-518-519-301900-
CASCADE MOUNTAINS AND COLUMBIA GORGE

CITY           SKY/WX    TMP DP  RH WIND       PRES   REMARKS
STAMPEDE PASS  NOT AVBL
TROUTDALE, OR  CLOUDY    65  59  81 SW8       29.93S
6HR MIN TEMP:  62; 6HR MAX TEMP:  66; 6HR PCP:  0.03;

THE DALLES, OR PTSUNNY   73  54  51 NW14      29.89F
6HR MIN TEMP:  64; 6HR MAX TEMP:  75;

$$

WAZ026-027-041>044-520-521-301900-
EAST SLOPES

CITY           SKY/WX    TMP DP  RH WIND       PRES   REMARKS
OMAK           CLOUDY    68  45  43 SE5       29.84F
6HR MIN TEMP:  47; 6HR MAX TEMP:  68;

WENATCHEE      CLOUDY    70  46  42 W8        29.86F
6HR MIN TEMP:  57; 6HR MAX TEMP:  70;

ELLENSBURG     CLOUDY    72  48  42 NW9       29.89F
6HR MIN TEMP:  54; 6HR MAX TEMP:  72;

YAKIMA         MOSUNNY   71  47  42 SW3       29.89S
6HR MIN TEMP:  52; 6HR MAX TEMP:  71;

$$

WAZ028-034-035-301900-
COLUMBIA BASIN

CITY           SKY/WX    TMP DP  RH WIND       PRES   REMARKS
EPHRATA        MOSUNNY   73  42  32 SW6       29.84F
6HR MIN TEMP:  55; 6HR MAX TEMP:  74;

MOSES LAKE     PTSUNNY   74  45  35 SW9       29.86F
6HR MIN TEMP:  55; 6HR MAX TEMP:  74;

PASCO          PTSUNNY   73  52  47 CALM      29.87F
6HR MIN TEMP:  53; 6HR MAX TEMP:  75;

HERMISTON, OR  PTSUNNY   75  51  43 W14       29.88F
6HR MIN TEMP:  59; 6HR MAX TEMP:  76;

$$

WAZ036>038-301900-
NORTHEAST WASHINGTON

CITY           SKY/WX    TMP DP  RH WIND       PRES   REMARKS
SPOKANE GEIGER PTSUNNY   68  44  42 SW15G23   29.89R
6HR MIN TEMP:  53; 6HR MAX TEMP:  68;

SPOKANE FELTS  MOSUNNY   71  43  36 SW15G21   29.89S
6HR MIN TEMP:  57; 6HR MAX TEMP:  71;

FAIRCHILD AFB  MOSUNNY   68  44  42 SW15G23   29.89S
6HR MIN TEMP:  50; 6HR MAX TEMP:  68;

COEURDALENE,ID MOSUNNY   68  43  40 SW7G17    29.89S
6HR MIN TEMP:  52; 6HR MAX TEMP:  68;

DEER PARK      MOSUNNY   67  43  41 VRB3      29.88F
6HR MIN TEMP:  51; 6HR MAX TEMP:  67;

$$

WAZ029>033-301900-
SOUTHEAST WASHINGTON

CITY           SKY/WX    TMP DP  RH WIND       PRES   REMARKS
PULLMAN        MOSUNNY   68  46  45 W9G28     29.94F
6HR MIN TEMP:  57; 6HR MAX TEMP:  69;

LEWISTON, ID   PTSUNNY   74  46  36 CALM      29.89F
6HR MIN TEMP:  64; 6HR MAX TEMP:  74;

WALLA WALLA    MOSUNNY   73  49  42 S15       29.91F
6HR MIN TEMP:  60; 6HR MAX TEMP:  73;

PENDLETON, OR  PTSUNNY   74  48  39 W17G25    29.91S
6HR MIN TEMP:  60; 6HR MAX TEMP:  74;

$$


USA.gov is the U.S. government's official web portal to all federal, state and local government web resources and services.